Home   Weather   Suzuka   Past weeks

Flag for Japan Past Weather in Suzuka, Japan — Yesterday and Last 2 Weeks

Now
42 °F

Quite cool.


Feels Like: 36 °F
Forecast: 37 / 45 °F
Wind: 12 mph from Northwest

Location: Tsu

Current Time: Feb 24, 2017 at 3:25:25 am

Latest Report: Feb 24, 2017 at 2:00 am


Visibility: N/A

Pressure: 29.89 "Hg

Humidity: 62%

Dew Point: 30 °F

Location of SuzukaLocation

Past Weather in Suzuka — Graph

°F

Suzuka Temperature Yesterday

Maximum temperature yesterday: 59 °F (at 12:00 pm)
Minimum temperature yesterday: 44 °F (at 12:00 am)
Average temperature yesterday: 49 °F

High & Low Weather Summary for the Past Weeks

 TemperatureHumidityPressure
High59 °F (Feb 23, 12:00 pm)90% (Feb 23, 2:00 am)30.43 "Hg (Feb 23, 2:00 am)
Low32 °F (Feb 10, 8:00 pm)32% (Feb 15, 1:00 pm)29.50 "Hg (Feb 10, 2:00 am)
Average41 °F62%30.05 "Hg
* Reported Feb 9 2:00 am — Feb 24 2:00 am, Suzuka, Weather by CustomWeather, © 2017

Note: Actual official high and low records may vary slightly from our data, if they occured in-between our weather recording intervals... More about our weather records

Advertising

Suzuka Weather History for the Previous 24 Hours

Scroll right to see more
 ConditionsComfort  
Time TempWeatherWind HumidityBarometerVisibility
2:00 am
Fri, Feb 24
42 °FQuite cool.12 mph62%29.89 "HgN/A
1:00 am43 °FQuite cool.9 mph63%29.87 "HgN/A
12:00 am44 °FQuite cool.12 mph61%29.85 "HgN/A
11:00 pm
Thu, Feb 23
45 °FCool.12 mph61%29.85 "HgN/A
10:00 pm46 °FCool.10 mph60%29.83 "HgN/A
9:00 pm47 °FOvercast.7 mph60%29.82 "Hg19 mi
8:00 pm48 °FCool.12 mph59%29.79 "HgN/A
7:00 pm49 °FCool.13 mph59%29.76 "HgN/A
6:00 pm50 °FCool.13 mph60%29.74 "HgN/A
5:00 pm52 °FCool.8 mph61%29.70 "HgN/A
4:00 pm53 °FCool.13 mph61%29.67 "HgN/A
3:00 pm53 °FOvercast.6 mph71%29.63 "Hg19 mi
2:00 pm54 °FCool.10 mph73%29.63 "HgN/A
1:00 pm57 °FCool.8 mph73%29.62 "HgN/A
12:00 pm59 °FCool.12 mph63%29.63 "HgN/A
11:00 am59 °FCool.5 mph70%29.64 "HgN/A
10:00 am54 °FCool.5 mph84%29.64 "HgN/A
9:00 am48 °FSprinkles. Overcast.2 mph90%29.64 "Hg4 mi
8:00 am48 °FCool.2 mph90%29.62 "HgN/A
7:00 am46 °FCool.3 mph90%29.62 "HgN/A
6:00 am46 °FCool.5 mph90%29.68 "HgN/A
5:00 am45 °FCool.6 mph90%29.71 "HgN/A
4:00 am45 °FCool.8 mph90%29.74 "HgN/A
3:00 am45 °FCool.10 mph90%29.80 "HgN/A
Weather by CustomWeather, © 2017

See weather overviewHow to use our weather pages